Gainesville, GA

9:46 AM EST on December 14, 2019 (GMT -0500)
Gilmer Memorial

Weather History for KGVL - October, 2019

Change the Weather History Date:

Tuesday, October 22, 2019

  Actual Average Record
Temperature  
Mean Temperature 62 °F 60 °F  
Max Temperature 70 °F 70 °F 88 °F (1941)
Min Temperature 53 °F 50 °F 28 °F (1952)
Degree Days  
Heating Degree Days 3 6  
Month to date heating degree days 46 81  
Since 1 July heating degree days 46 94  
Cooling Degree Days 0 1  
Month to date cooling degree days 104 35  
Year to date cooling degree days 2033 1576  
Growing Degree Days 12 (Base 50)    
Moisture  
Dew Point 56 °F    
Average Humidity 66    
Maximum Humidity 100    
Minimum Humidity 31    
Precipitation  
Precipitation 0.24 in 0.12 in 1.64 in (1956)
Month to date precipitation 2.11 3.10  
Year to date precipitation 39.99 44.03  
Snow  
Snow 0.00 in - - ()
Month to date snowfall 0.0  
Since 1 July snowfall 0.0  
Since 1 September snowfall 0.0  
Snow Depth 0.00 in    
Sea Level Pressure  
Sea Level Pressure 29.92 in    
Wind  
Wind Speed 9 mph (SW)    
Max Wind Speed 22 mph    
Max Gust Speed 29 mph    
Visibility 7 miles    
Events Rain    
T = Trace of Precipitation, MM = Missing Value Source: NWS Daily Summary

Daily Weather History Graph

Daily Weather History Graph

Search for Another Location

Airport or City:

Astronomy

Oct. 22, 2019 Rise Set
Actual Time 7:46 AM EDT 6:52 PM EDT
Civil Twilight 7:20 AM EDT 7:18 PM EDT
Nautical Twilight 6:51 AM EDT 7:47 PM EDT
Astronomical Twilight 6:22 AM EDT 8:16 PM EDT
Moon 1:16 AM EDT (10/22) 3:41 PM EDT (10/22)
Length of Visible Light 11h 57m
Length of Day
11h 06m
Last Quarter, 37% of the Moon is Illuminated
Oct 22
Last Quarter
Oct 27
New
Nov 4
First Quarter
Nov 12
Full
Nov 19
Last Quarter

Hourly Weather History & Observations

Time (EDT) Temp. Dew Point Humidity Pressure Visibility Wind Dir Wind Speed Gust Speed Precip Events Conditions
12:53 AM 64.0 °F 64.0 °F 100% 29.94 in 5.0 mi East 6.9 mph - N/A   Mostly Cloudy
1:04 AM 64.0 °F 64.0 °F 100% 29.97 in 5.0 mi East 8.1 mph - N/A   Overcast
1:17 AM 63.0 °F 63.0 °F 100% 29.97 in 5.0 mi East 5.8 mph - N/A   Overcast
1:53 AM 64.0 °F 64.0 °F 100% 29.93 in 5.0 mi ENE 4.6 mph - N/A   Mostly Cloudy
2:53 AM 63.0 °F 63.0 °F 100% 29.90 in 5.0 mi ESE 5.8 mph - N/A   Overcast
3:30 AM 64.0 °F 64.0 °F 100% 29.91 in 5.0 mi ESE 3.5 mph - N/A   Mostly Cloudy
3:53 AM 64.0 °F 64.0 °F 100% 29.88 in 5.0 mi SSE 3.5 mph - N/A   Overcast
4:26 AM 64.0 °F 64.0 °F 100% 29.89 in 4.0 mi Variable 3.5 mph - 0.00 in Rain Light Rain
4:53 AM 64.0 °F 64.0 °F 100% 29.86 in 4.0 mi SSE 3.5 mph - 0.00 in   Overcast
5:53 AM 64.9 °F 64.9 °F 100% 29.86 in 5.0 mi South 5.8 mph - 0.01 in   Overcast
6:53 AM 64.9 °F 64.9 °F 100% 29.85 in 5.0 mi SSE 6.9 mph - N/A   Overcast
7:21 AM 64.9 °F 64.9 °F 100% 29.88 in 4.0 mi South 5.8 mph - 0.01 in Rain Light Rain
7:25 AM 64.9 °F 64.9 °F 100% 29.88 in 2.0 mi South 5.8 mph - 0.05 in Rain Heavy Rain
7:28 AM 64.9 °F 64.9 °F 100% 29.88 in 1.8 mi South 9.2 mph - 0.07 in Rain Heavy Rain
7:46 AM 64.9 °F 64.9 °F 100% 29.89 in 3.0 mi SW 10.4 mph - 0.11 in Rain Light Rain
7:48 AM 64.4 °F 64.4 °F 100% 29.89 in 4.0 mi West 17.3 mph 21.9 mph 0.11 in Rain Light Rain
7:53 AM 63.0 °F 63.0 °F 100% 29.86 in 7.0 mi West 16.1 mph 21.9 mph 0.11 in Rain Light Rain
8:07 AM 61.0 °F 61.0 °F 100% 29.91 in 4.0 mi WSW 13.8 mph - 0.02 in Rain Light Rain
8:21 AM 60.1 °F 60.1 °F 100% 29.92 in 2.5 mi West 15.0 mph - 0.04 in Rain Rain
8:53 AM 57.9 °F 57.9 °F 100% 29.92 in 9.0 mi West 9.2 mph - 0.08 in   Overcast
9:34 AM 57.9 °F 57.9 °F 100% 29.96 in 10.0 mi West 9.2 mph - 0.04 in   Overcast
9:53 AM 57.9 °F 57.9 °F 100% 29.94 in 9.0 mi West 6.9 mph - 0.04 in   Overcast
10:53 AM 60.1 °F 59.0 °F 96% 29.94 in 10.0 mi West 9.2 mph - 0.00 in   Scattered Clouds
12:53 PM 66.9 °F 50.0 °F 54% 29.94 in 10.0 mi West 12.7 mph 21.9 mph N/A   Clear
1:53 PM 68.0 °F 46.0 °F 45% 29.91 in 10.0 mi West 19.6 mph 25.3 mph N/A   Clear
2:53 PM 69.1 °F 43.0 °F 39% 29.91 in 10.0 mi West 15.0 mph 20.7 mph N/A   Clear
3:53 PM 69.1 °F 39.0 °F 33% 29.91 in 10.0 mi WNW 17.3 mph 23.0 mph N/A   Clear
4:53 PM 69.1 °F 37.0 °F 31% 29.94 in 10.0 mi West 12.7 mph 24.2 mph N/A   Clear
5:53 PM 66.9 °F 35.1 °F 31% 29.94 in 10.0 mi West 16.1 mph 23.0 mph N/A   Clear
6:53 PM 63.0 °F 37.0 °F 38% 29.96 in 10.0 mi West 9.2 mph - N/A   Clear
7:53 PM 57.0 °F 39.9 °F 53% 29.99 in 10.0 mi WSW 4.6 mph - N/A   Clear
8:53 PM 55.9 °F 39.9 °F 55% 30.01 in 10.0 mi West 6.9 mph - N/A   Clear
9:53 PM 55.9 °F 39.9 °F 55% 30.02 in 10.0 mi West 5.8 mph - N/A   Clear
10:53 PM 54.0 °F 41.0 °F 62% 30.05 in 10.0 mi West 8.1 mph - N/A   Clear